FW0878 Weather Reports


Display with metric or nautical units.
time (UTC)temp
F
wind
direction
speed
MPH
gust
MPH
rain 1hr
in
rain 24hr
in
rain mn
in
humidity
%
barometer
mb
20260507071806 54 246 3.0 8.0 0.00 0.32 0.09 67 1022.1
20260507070807 55 249 7.0 17.0 0.00 0.32 0.09 62 1022.2
20260507070307 55 268 3.0 9.0 0.00 0.32 0.09 62 1021.9
20260507065808 55 247 3.0 7.0 0.00 0.32 0.09 62 1021.9
20260507065307 55 205 3.0 8.0 0.00 0.32 0.09 62 1021.9
20260507064308 55 229 3.0 7.0 0.00 0.32 0.09 61 1021.8
20260507063807 55 248 4.0 8.0 0.00 0.32 0.09 60 1022.0
20260507062807 55 206 3.0 13.0 0.00 0.32 0.09 59 1022.0
20260507062307 55 229 6.0 12.0 0.00 0.32 0.09 58 1022.1
20260507061806 55 183 6.0 14.0 0.00 0.32 0.09 58 1022.0
20260507060307 56 206 4.0 9.0 0.00 0.32 0.09 64 1022.0
20260507055807 56 265 3.0 9.0 0.00 0.32 0.09 65 1022.0
20260507053807 55 248 2.0 7.0 0.00 0.32 0.09 67 1022.0
20260507053308 55 244 5.0 7.0 0.00 0.32 0.09 66 1021.9
20260507052807 54 250 3.0 9.0 0.00 0.32 0.09 67 1022.0
20260507052308 54 292 2.0 7.0 0.00 0.32 0.09 69 1022.0
20260507051807 54 205 3.0 7.0 0.00 0.32 0.09 69 1022.4
20260507051307 54 251 3.0 7.0 0.00 0.32 0.09 68 1022.2
20260507050307 54 201 3.0 10.0 0.00 0.32 0.09 67 1022.2
20260507045807 54 248 4.0 14.0 0.00 0.32 0.09 65 1022.0
20260507045308 55 246 6.0 9.0 0.00 0.32 0.09 62 1022.2
20260507044807 55 139 6.0 14.0 0.00 0.32 0.09 59 1021.9
20260507042807 55 180 4.0 12.0 0.00 0.32 0.09 61 1021.9
20260507042307 55 244 6.0 10.0 0.00 0.32 0.09 60 1022.1
20260507041807 55 309 5.0 13.0 0.00 0.32 0.09 62 1022.0
20260507041307 55 211 5.0 14.0 0.00 0.32 0.09 62 1022.0
20260507040808 55 246 6.0 13.0 0.00 0.32 0.09 61 1022.0
20260507040307 56 186 3.0 13.0 0.00 0.32 0.09 63 1022.0
20260507035808 55 246 5.0 12.0 0.00 0.32 0.09 62 1022.1
20260507035307 55 160 4.0 10.0 0.00 0.32 0.09 64 1022.1
20260507034308 56 311 3.0 6.0 0.00 0.32 0.09 64 1021.9
20260507033807 55 251 2.0 10.0 0.00 0.32 0.09 65 1022.2
20260507033308 54 290 6.0 13.0 0.00 0.32 0.09 63 1022.2
20260507031308 53 226 5.0 10.0 0.00 0.32 0.09 65 1022.5
20260507030808 53 204 4.0 13.0 0.00 0.32 0.09 66 1022.4
20260507030307 53 292 7.0 13.0 0.00 0.32 0.09 66 1022.6
20260507025808 53 183 4.0 13.0 0.00 0.32 0.09 66 1022.4
20260507025307 53 244 6.0 14.0 0.00 0.32 0.09 66 1022.3
20260507024807 53 227 6.0 13.0 0.00 0.32 0.09 66 1022.2
20260507024307 53 247 4.0 9.0 0.00 0.32 0.09 66 1022.6
20260507023807 53 273 5.0 14.0 0.00 0.32 0.09 68 1022.5
20260507023308 53 270 7.0 12.0 0.00 0.32 0.09 67 1022.6
20260507022807 51 265 5.0 12.0 0.00 0.32 0.09 72 1022.6
20260507022307 51 181 5.0 10.0 0.00 0.32 0.09 74 1022.8
20260507021806 50 250 3.0 14.0 0.00 0.32 0.09 78 1022.9
20260507021307 51 247 7.0 14.0 0.00 0.32 0.09 75 1023.0
20260507020806 51 290 8.0 15.0 0.00 0.32 0.09 73 1023.1
20260507020307 52 160 7.0 14.0 0.00 0.32 0.09 71 1023.0
20260507015807 52 287 3.0 13.0 0.00 0.32 0.09 69 1022.9
20260507015308 52 114 3.0 12.0 0.00 0.32 0.09 70 1022.8
20260507014808 52 203 4.0 13.0 0.00 0.32 0.09 69 1023.0
20260507014307 52 248 5.0 9.0 0.00 0.32 0.09 71 1022.9
20260507013807 51 243 5.0 9.0 0.00 0.32 0.09 71 1023.0
20260507013308 50 226 2.0 6.0 0.00 0.32 0.09 76 1022.9
20260507012807 49 267 3.0 9.0 0.00 0.32 0.09 76 1022.9
20260507012308 49 204 3.0 9.0 0.00 0.32 0.09 76 1022.9
20260507011806 49 246 4.0 10.0 0.01 0.32 0.09 78 1022.8
20260507011308 49 270 4.0 10.0 0.02 0.32 0.09 78 1022.9
20260507010806 49 271 5.0 10.0 0.03 0.32 0.09 78 1022.9
20260507005807 48 269 4.0 9.0 0.05 0.32 0.09 80 1022.9
20260507005308 48 225 3.0 6.0 0.05 0.32 0.09 83 1022.8
20260507004807 48 204 2.0 6.0 0.05 0.32 0.09 84 1022.8
20260507004308 47 246 3.0 7.0 0.05 0.32 0.09 84 1022.8
20260507003807 47 266 4.0 9.0 0.06 0.32 0.09 84 1022.6
20260507002808 46 270 3.0 9.0 0.06 0.32 0.09 87 1022.8
20260507002307 46 225 1.0 6.0 0.07 0.32 0.09 88 1022.9
20260507001808 46 225 1.0 2.0 0.06 0.31 0.09 88 1023.0
20260507001307 46 248 1.0 2.0 0.08 0.30 0.08 87 1023.0
20260507000807 46 202 1.0 6.0 0.07 0.29 0.07 86 1023.0
20260507000307 46 248 2.0 6.0 0.05 0.27 0.05 86 1022.7
20260506235807 46 251 1.0 3.0 0.05 0.27 0.05 86 1022.6
20260506234807 45 270 0.0 1.0 0.05 0.27 0.05 87 1022.6
20260506234307 45 244 0.0 2.0 0.05 0.27 0.05 86 1022.8
20260506233807 45 183 2.0 5.0 0.05 0.26 0.04 84 1022.8
20260506233308 45 223 2.0 3.0 0.05 0.26 0.04 85 1022.5
20260506232808 45 248 1.0 5.0 0.05 0.26 0.04 85 1022.6
20260506232307 45 248 2.0 6.0 0.04 0.26 0.03 84 1022.6
20260506231807 46 250 2.0 8.0 0.04 0.26 0.03 82 1022.6
20260506231308 46 270 2.0 7.0 0.01 0.23 0.00 81 1022.5
20260506230807 45 227 2.0 7.0 0.01 0.23 0.00 83 1022.3
20260506230306 45 269 3.0 7.0 0.01 0.23 0.00 84 1022.3
20260506225807 44 248 2.0 6.0 0.02 0.23 0.23 84 1022.1
20260506225308 44 248 1.0 5.0 0.02 0.23 0.23 85 1022.2
20260506224807 44 250 2.0 3.0 0.03 0.23 0.23 85 1022.3
20260506224307 45 248 1.0 3.0 0.04 0.23 0.23 84 1022.3
20260506223807 45 249 2.0 7.0 0.03 0.22 0.22 82 1022.3
20260506223308 45 248 3.0 10.0 0.03 0.22 0.22 82 1022.0
20260506222807 45 245 3.0 7.0 0.03 0.22 0.22 83 1021.6
20260506222307 44 312 3.0 8.0 0.03 0.22 0.22 83 1021.7
20260506221808 44 315 2.0 8.0 0.03 0.22 0.22 84 1021.7
20260506221307 44 266 2.0 8.0 0.04 0.22 0.22 84 1021.7
20260506220807 44 287 3.0 7.0 0.05 0.22 0.22 84 1021.6
20260506220308 44 269 1.0 6.0 0.05 0.22 0.22 84 1021.7
20260506215807 44 241 2.0 6.0 0.04 0.21 0.21 83 1021.9
20260506215307 44 223 2.0 5.0 0.04 0.21 0.21 83 1022.2
20260506214807 44 245 3.0 5.0 0.03 0.20 0.20 82 1021.7
20260506214308 43 224 2.0 6.0 0.02 0.19 0.19 82 1021.7
20260506213807 43 271 3.0 6.0 0.02 0.19 0.19 84 1021.3
20260506213307 43 270 3.0 8.0 0.02 0.19 0.19 84 1021.2
20260506212808 43 289 3.0 12.0 0.02 0.19 0.19 85 1020.9
20260506212308 42 287 1.0 5.0 0.02 0.19 0.19 85 1021.2
20260506211806 42 243 1.0 3.0 0.02 0.19 0.19 85 1021.5
20260506211308 42 180 2.0 3.0 0.01 0.18 0.18 84 1021.4
20260506210808 42 202 1.0 2.0 0.00 0.17 0.17 85 1021.1
20260506210307 42 294 1.0 3.0 0.00 0.17 0.17 84 1020.6
20260506205807 42 317 1.0 3.0 0.00 0.17 0.17 84 1020.5
20260506205307 42 251 1.0 3.0 0.00 0.17 0.17 84 1020.4
20260506204807 42 291 1.0 3.0 0.00 0.17 0.17 84 1020.5
20260506203807 43 296 2.0 3.0 0.00 0.17 0.17 83 1020.4
20260506202807 43 227 3.0 6.0 0.00 0.17 0.17 82 1020.6
20260506201808 43 114 1.0 5.0 0.00 0.17 0.17 83 1020.4
20260506201307 43 288 2.0 8.0 0.00 0.17 0.17 82 1020.1
20260506200807 43 180 3.0 7.0 0.00 0.17 0.17 82 1020.0
20260506200307 43 183 3.0 9.0 0.00 0.17 0.17 82 1020.1
20260506195807 43 290 3.0 7.0 0.00 0.17 0.17 83 1019.9
20260506195308 43 311 5.0 8.0 0.00 0.17 0.17 83 1020.0
20260506194808 43 229 3.0 8.0 0.00 0.17 0.17 84 1019.9
20260506194307 43 268 4.0 8.0 0.00 0.17 0.17 84 1019.7
20260506192807 43 204 3.0 12.0 0.05 0.17 0.17 84 1019.7
20260506192308 43 250 5.0 12.0 0.06 0.17 0.17 84 1019.8
20260506191806 43 245 5.0 12.0 0.06 0.17 0.17 85 1019.8
20260506191308 43 204 4.0 12.0 0.06 0.17 0.17 85 1019.9
20260506190807 43 222 6.0 12.0 0.06 0.17 0.17 85 1019.8
20260506185807 43 227 3.0 8.0 0.06 0.17 0.17 86 1019.6
20260506185308 43 263 3.0 10.0 0.06 0.17 0.17 86 1019.5
20260506184807 43 89 2.0 12.0 0.06 0.17 0.17 86 1019.4
20260506184308 43 270 6.0 12.0 0.06 0.17 0.17 85 1020.0
20260506183807 44 219 6.0 16.0 0.04 0.15 0.15 83 1020.0
20260506183308 44 206 3.0 6.0 0.01 0.12 0.12 80 1019.9
20260506182808 44 286 2.0 6.0 0.01 0.12 0.12 78 1019.7
20260506182307 44 222 2.0 6.0 0.00 0.11 0.11 77 1019.4
20260506181806 43 249 1.0 6.0 0.00 0.11 0.11 78 1019.5
20260506180307 43 272 2.0 7.0 0.00 0.11 0.11 79 1019.0
20260506175808 43 43 3.0 8.0 0.00 0.11 0.11 80 1019.0
20260506175307 43 248 3.0 5.0 0.00 0.11 0.11 80 1018.8
20260506174807 43 274 2.0 6.0 0.00 0.11 0.11 81 1018.9
20260506174308 43 293 2.0 3.0 0.00 0.11 0.11 80 1018.7
20260506173807 43 278 2.0 7.0 0.00 0.11 0.11 80 1018.7
20260506172807 43 272 2.0 5.0 0.00 0.11 0.11 80 1019.0
20260506172307 43 118 2.0 10.0 0.00 0.11 0.11 80 1019.0
20260506171807 44 228 5.0 10.0 0.00 0.11 0.11 79 1019.3
20260506171307 44 246 3.0 8.0 0.00 0.11 0.11 79 1019.4
20260506170807 44 290 3.0 8.0 0.00 0.11 0.11 80 1019.7
20260506170307 44 289 2.0 7.0 0.00 0.11 0.11 79 1019.4
20260506165807 44 292 2.0 9.0 0.00 0.11 0.11 79 1019.3
20260506165308 44 265 3.0 10.0 0.00 0.11 0.11 78 1019.6
20260506164807 44 269 5.0 10.0 0.00 0.11 0.11 78 1019.3
20260506164307 44 203 5.0 10.0 0.00 0.11 0.11 78 1019.2
20260506163807 44 334 3.0 9.0 0.00 0.11 0.11 78 1019.2
20260506163307 44 272 3.0 9.0 0.00 0.11 0.11 79 1019.0
20260506162807 44 227 4.0 8.0 0.00 0.11 0.11 79 1019.4
20260506162307 44 228 2.0 5.0 0.00 0.11 0.11 80 1019.3
20260506161809 44 291 2.0 9.0 0.00 0.11 0.11 79 1019.2
20260506161307 44 87 1.0 5.0 0.00 0.11 0.11 79 1019.3
20260506160807 44 270 2.0 7.0 0.00 0.11 0.11 78 1018.9
20260506160307 44 273 2.0 6.0 0.00 0.11 0.11 78 1019.1
20260506155807 45 206 2.0 8.0 0.00 0.11 0.11 77 1018.9
20260506155307 45 249 4.0 10.0 0.00 0.11 0.11 75 1019.1
20260506154808 45 268 4.0 10.0 0.00 0.11 0.11 75 1019.1
20260506154308 45 205 5.0 12.0 0.00 0.11 0.11 75 1019.2
20260506153807 45 250 3.0 12.0 0.00 0.11 0.11 75 1019.3
20260506152808 45 292 4.0 12.0 0.00 0.11 0.11 75 1019.1
20260506151806 45 246 3.0 10.0 0.00 0.11 0.11 75 1019.3
20260506151307 45 270 2.0 8.0 0.00 0.11 0.11 76 1019.2
20260506150808 45 221 3.0 8.0 0.00 0.11 0.11 76 1019.1
20260506150307 45 266 4.0 8.0 0.00 0.11 0.11 78 1019.2
20260506145807 45 289 5.0 12.0 0.00 0.11 0.11 79 1019.1
20260506145307 45 270 3.0 10.0 0.00 0.11 0.11 80 1019.3
20260506144807 45 202 4.0 10.0 0.00 0.11 0.11 80 1019.1
20260506143808 46 225 6.0 12.0 0.00 0.11 0.11 80 1019.2
20260506143307 47 43 7.0 15.0 0.00 0.11 0.11 77 1019.1
20260506142807 47 203 3.0 8.0 0.00 0.11 0.11 72 1019.2
20260506142308 47 270 2.0 9.0 0.00 0.11 0.11 71 1019.1
20260506141807 47 249 3.0 9.0 0.00 0.11 0.11 71 1019.0
20260506135807 47 269 2.0 7.0 0.00 0.11 0.11 71 1018.9
20260506135307 47 291 3.0 8.0 0.00 0.11 0.11 70 1018.9
20260506134806 47 270 3.0 7.0 0.00 0.11 0.11 70 1018.6
20260506134307 47 269 2.0 10.0 0.00 0.11 0.11 69 1018.7
20260506133807 47 271 4.0 8.0 0.00 0.11 0.11 69 1018.6
20260506133306 47 269 3.0 9.0 0.00 0.11 0.11 69 1018.5
20260506132807 47 246 4.0 13.0 0.00 0.11 0.11 69 1018.6
20260506131806 47 225 5.0 13.0 0.00 0.11 0.11 70 1018.8
20260506131307 48 273 5.0 10.0 0.00 0.11 0.11 71 1018.7
20260506130807 48 225 7.0 12.0 0.00 0.11 0.11 71 1018.5
20260506130307 48 246 8.0 15.0 0.00 0.11 0.11 71 1018.3
20260506125807 48 208 6.0 14.0 0.00 0.11 0.11 73 1018.2
20260506125307 49 246 5.0 12.0 0.00 0.11 0.11 73 1018.1
20260506124807 49 227 5.0 13.0 0.00 0.11 0.11 72 1018.0
20260506123807 49 167 3.0 9.0 0.00 0.11 0.11 72 1018.1
20260506123308 50 248 4.0 15.0 0.00 0.11 0.11 72 1018.4
20260506122808 50 251 6.0 15.0 0.00 0.11 0.11 70 1018.4
20260506120808 50 291 4.0 9.0 0.00 0.11 0.11 77 1018.2
20260506115308 50 353 3.0 7.0 0.00 0.11 0.11 79 1018.2
20260506114807 50 268 2.0 7.0 0.00 0.11 0.11 79 1018.2
20260506114307 50 182 2.0 7.0 0.00 0.11 0.11 79 1018.1
20260506113807 50 251 3.0 9.0 0.00 0.11 0.11 79 1018.0
20260506113308 50 207 3.0 8.0 0.00 0.11 0.11 79 1018.1
20260506112807 50 249 5.0 8.0 0.00 0.11 0.11 79 1018.1
20260506112307 50 289 3.0 12.0 0.00 0.11 0.11 79 1017.8
20260506111806 50 270 4.0 12.0 0.00 0.11 0.11 80 1017.9
20260506111306 50 270 3.0 14.0 0.00 0.11 0.11 80 1018.0
20260506110307 50 230 6.0 13.0 0.00 0.11 0.11 80 1017.6
20260506105807 50 290 6.0 14.0 0.00 0.11 0.11 80 1017.7
20260506105307 50 228 6.0 12.0 0.00 0.11 0.11 81 1018.0
20260506104808 51 250 3.0 13.0 0.00 0.11 0.11 81 1017.9
20260506104308 51 162 6.0 14.0 0.00 0.11 0.11 81 1017.9
20260506102808 51 287 6.0 14.0 0.00 0.11 0.11 83 1017.7
20260506101806 51 248 7.0 18.0 0.01 0.11 0.11 85 1017.5